Location: Oroua River
(40.4333°S, 175.4333°E)
Time: 14:40:18
(UTC+00:00)

Cosmos 1378 Rocket - Pass Details

Date: 03 February 2023
Orbit: 600 x 626 km, 82.5° (Epoch: 23 March)

Event Time Altitude Azimuth Distance (km) Brightness Sun altitude
Exits shadow 16:14:54 12° 347° (NNW) 1,835 5.5 -13.2°
Maximum altitude 16:18:55 75° 262° (W) 641 3.5 -12.5°
Drops below altitude 10° 16:23:21 10° 176° (S) 1,998 6.7 -11.8°
Sets 16:25:37 0° 174° (S) 2,916 7.6 -11.5°
